{"data":{"norad_id":58168,"epoch":"2026-09-20T21:22:49.084896Z","epoch_age_seconds":106740,"freshness":"FRESH","line1":"1 58168U 23166U   26263.89084589  .00002879  00000+0  96320-4 0  9995","line2":"2 58168  53.1625  31.6391 0001328 125.2381 234.8746 15.34395378162934","mean_motion":15.34395378,"eccentricity":0.0001328,"inclination_deg":53.1625,"raan_deg":31.6391,"arg_perigee_deg":125.2381,"mean_anomaly_deg":234.8746,"bstar":9.632e-5,"rev_number":16293,"period_min":93.848040775316,"perigee_km":461.80851239138,"apogee_km":463.62544320788,"semimajor_km":6840.8539777996,"source":"CELESTRAK","updated_at":"2026-09-21T09:00:33.824679Z"}}